Location: Zapote
(9.9191°N, 84.0597°W)
Time: 18:32:58
(UTC-06:00)

LightSail 2 - Visible Passes

Search period start: 28 March 2020 00:00
Search period end: 07 April 2020 00:00
Orbit: 692 x 726 km, 24.0° (Epoch: 28 March)

Date Brightness Start Highest point End Pass type
(mag) Time Alt. Az. Time Alt. Az. Time Alt. Az.
28 Mar 7.1 03:47:33 17° SSE 03:48:28 17° SSE 03:51:47 10° ESE visible
29 Mar 5.9 04:31:15 18° SW 04:34:40 44° SSE 04:39:29 10° E visible
30 Mar 6.5 03:35:59 29° SE 03:35:59 29° SE 03:39:54 10° E visible
31 Mar 5.1 04:19:34 35° WSW 04:21:39 79° SSE 04:26:43 10° ENE visible
01 Apr 6.5 03:24:12 36° E 03:24:12 36° E 03:27:22 10° ENE visible
01 Apr 5.7 05:03:06 10° W 05:07:54 44° NNW 05:12:44 10° NE visible
02 Apr 5.2 04:07:39 50° WNW 04:08:38 62° NNW 04:13:38 10° ENE visible
03 Apr 7.0 03:12:09 27° ENE 03:12:09 27° ENE 03:14:26 10° ENE visible
03 Apr 6.3 04:51:02 12° WNW 04:55:00 29° NNW 04:59:23 10° NE visible
04 Apr 5.8 03:55:28 38° NNW 03:55:38 38° NNW 04:00:20 10° NE visible
05 Apr 7.5 02:59:51 18° NE 02:59:51 18° NE 03:01:13 10° NE visible
05 Apr 6.8 04:38:44 12° WNW 04:42:07 22° NNW 04:45:59 10° NE visible
06 Apr 6.5 03:43:05 26° N 03:43:05 26° N 03:46:53 10° NE visible
